Location: Hamilton
(37.7830°S, 175.2830°E)
Time: 00:28:33
(UTC+13:00)

Cosmos 1869 - Pass Details

Date: 24 January 2019
Orbit: 537 x 547 km, 82.5° (Epoch: 22 February)

Event Time Altitude Azimuth Distance (km) Brightness Sun altitude
Rises 20:58:37 0° 15° (NNE) 2,702 6.4 -4.4°
Reaches altitude 10° 21:00:53 10° 24° (NNE) 1,817 5.5 -4.8°
Maximum altitude 21:04:30 34° 89° (E) 928 4.0 -5.4°
Drops below altitude 10° 21:08:10 10° 153° (SSE) 1,837 6.0 -6.1°
Sets 21:10:28 0° 162° (SSE) 2,738 7.1 -6.4°
